Track STARLINK-2303 now! 10-day predictions STARLINK-2303 is classified as:
1 47981U 21024E 22180.53414003 .00001799 00000-0 13963-3 0 9992 2 47981 53.0545 273.2095 0001271 75.6580 284.4550 15.06393795 71210